GW6384 Weather Reports


Display with metric or nautical units.
time (UTC)temp
F
wind
direction
speed
MPH
gust
MPH
rain 1hr
in
rain 24hr
in
rain mn
in
humidity
%
barometer
mb
20260510192311 65 5 8.0 14.0 0.00 0.00 0.00 40 513.5
20260510191810 65 6 10.0 14.0 0.00 0.00 0.00 40 469.9
20260510191309 65 5 6.0 13.0 0.00 0.00 0.00 42 620.6
20260510190808 65 358 7.0 13.0 0.00 0.00 0.00 45 628.5
20260510190307 65 358 6.0 13.0 0.00 0.00 0.00 44 373.0
20260510185807 65 21 8.0 13.0 0.00 0.00 0.00 44 299.5
20260510185309 65 12 10.0 13.0 0.00 0.00 0.00 41 373.4
20260510184805 65 22 7.0 13.0 0.00 0.00 0.00 41 363.8
20260510184304 65 10 7.0 13.0 0.00 0.00 0.00 42 438.1
20260510183803 65 3 6.0 13.0 0.00 0.00 0.00 41 466.2
20260510183303 65 8 9.0 13.0 0.00 0.00 0.00 40 345.8
20260510182800 65 7 8.0 13.0 0.00 0.00 0.00 43 401.6
20260510182259 66 358 6.0 13.0 0.00 0.00 0.00 41 542.9
20260510181759 65 21 6.0 14.0 0.00 0.00 0.00 44 448.2
20260510181259 65 1 7.0 14.0 0.00 0.00 0.00 42 465.3
20260510180801 65 16 10.0 13.0 0.00 0.00 0.00 43 275.7
20260510175741 66 17 7.0 14.0 0.00 0.00 0.00 45 322.3
20260510174725 65 16 6.0 14.0 0.00 0.00 0.00 44 357.2
20260510174224 65 4 7.0 15.0 0.00 0.00 0.00 42 378.4
20260510173723 65 22 10.0 15.0 0.00 0.00 0.00 42 260.4
20260510173223 65 20 9.0 14.0 0.00 0.00 0.00 43 272.9
20260510172722 65 33 8.0 14.0 0.00 0.00 0.00 42 276.4
20260510172221 65 36 8.0 14.0 0.00 0.00 0.00 42 272.7
20260510171721 65 42 8.0 15.0 0.00 0.00 0.00 42 271.9
20260510170704 65 23 7.0 13.0 0.00 0.00 0.00 46 290.5
20260510170203 64 32 6.0 14.0 0.00 0.00 0.00 44 275.5
20260510165702 64 33 8.0 14.0 0.00 0.00 0.00 41 279.9
20260510165201 64 15 10.0 14.0 0.00 0.00 0.00 43 311.8
20260510164700 64 8 8.0 14.0 0.00 0.00 0.00 43 390.2
20260510164159 63 7 9.0 14.0 0.00 0.00 0.00 42 365.8
20260510163658 63 14 8.0 14.0 0.00 0.00 0.00 40 405.5
20260510163157 63 4 8.0 15.0 0.00 0.00 0.00 42 528.8
20260510162656 64 21 8.0 15.0 0.00 0.00 0.00 44 357.8
20260510162155 63 3 7.0 13.0 0.00 0.00 0.00 43 398.6
20260510161139 63 4 10.0 15.0 0.00 0.00 0.00 41 357.8
20260510160639 63 27 9.0 15.0 0.00 0.00 0.00 42 266.9
20260510160138 63 32 7.0 15.0 0.00 0.00 0.00 44 264.9
20260510155638 63 24 10.0 15.0 0.00 0.00 0.00 42 261.7
20260510155138 63 12 10.0 14.0 0.00 0.00 0.00 42 250.7
20260510154122 62 28 8.0 15.0 0.00 0.00 0.00 44 247.8
20260510153622 62 21 9.0 15.0 0.00 0.00 0.00 46 249.1
20260510153122 62 21 9.0 13.0 0.00 0.00 0.00 46 262.2
20260510152621 62 29 7.0 13.0 0.00 0.00 0.00 46 257.9
20260510152120 61 47 7.0 13.0 0.00 0.00 0.00 44 264.2
20260510151103 61 32 6.0 12.0 0.00 0.00 0.00 45 261.6
20260510150602 61 36 6.0 13.0 0.00 0.00 0.00 46 255.7
20260510145601 60 21 6.0 14.0 0.00 0.00 0.00 48 245.4
20260510145101 60 22 8.0 14.0 0.00 0.00 0.00 47 236.3
20260510144600 60 18 7.0 12.0 0.00 0.00 0.00 46 237.6
20260510144100 60 25 9.0 12.0 0.00 0.00 0.00 47 239.7
20260510143559 60 17 6.0 12.0 0.00 0.00 0.00 49 222.3
20260510142542 60 23 6.0 12.0 0.00 0.00 0.00 47 250.9
20260510141011 60 18 6.0 14.0 0.00 0.00 0.00 49 221.7
20260510140510 60 17 7.0 14.0 0.00 0.00 0.00 49 232.9
20260510140010 60 18 6.0 14.0 0.00 0.00 0.00 50 241.4
20260510134954 60 44 5.0 14.0 0.00 0.00 0.00 48 257.6
20260510134453 60 31 6.0 14.0 0.00 0.00 0.00 49 248.7
20260510133953 60 24 7.0 14.0 0.00 0.00 0.00 49 244.5
20260510133453 60 38 7.0 14.0 0.00 0.00 0.00 49 252.2
20260510132952 60 21 9.0 12.0 0.00 0.00 0.00 49 255.5
20260510132451 60 31 5.0 12.0 0.00 0.00 0.00 50 271.1
20260510131950 60 46 4.0 12.0 0.00 0.00 0.00 51 266.5
20260510130935 60 36 7.0 12.0 0.00 0.00 0.00 50 252.1
20260510125918 60 20 8.0 13.0 0.00 0.00 0.00 52 238.6
20260510125417 59 22 8.0 13.0 0.00 0.00 0.00 52 264.9
20260510124401 59 26 8.0 13.0 0.00 0.00 0.00 52 242.6
20260510123345 59 15 8.0 14.0 0.00 0.00 0.00 54 265.0
20260510122845 59 21 6.0 13.0 0.00 0.00 0.00 55 237.3
20260510122344 59 13 7.0 13.0 0.00 0.00 0.00 55 230.4
20260510121844 59 16 7.0 13.0 0.00 0.00 0.00 56 240.4
20260510121344 59 26 8.0 13.0 0.00 0.00 0.00 56 225.8
20260510120843 59 19 7.0 13.0 0.00 0.00 0.00 58 223.6
20260510120342 59 20 8.0 13.0 0.00 0.00 0.00 57 231.3
20260510115842 59 21 7.0 13.0 0.00 0.00 0.00 58 242.5
20260510115342 59 31 6.0 13.0 0.00 0.00 0.00 58 267.9
20260510114841 59 41 3.0 13.0 0.00 0.00 0.00 58 279.1
20260510114341 59 53 5.0 13.0 0.00 0.00 0.00 58 290.6
20260510113841 59 43 5.0 13.0 0.00 0.00 0.00 58 272.4
20260510113341 59 56 4.0 13.0 0.00 0.00 0.00 59 262.1
20260510112840 59 31 6.0 13.0 0.00 0.00 0.00 59 243.3
20260510112339 59 30 5.0 11.0 0.00 0.00 0.00 60 242.5
20260510110807 59 24 4.0 11.0 0.00 0.00 0.00 61 239.8
20260510110306 60 22 4.0 11.0 0.00 0.00 0.00 60 250.6
20260510105250 60 34 4.0 11.0 0.00 0.00 0.00 60 262.8
20260510104749 60 32 4.0 11.0 0.00 0.00 0.00 60 262.1
20260510104248 60 48 5.0 11.0 0.00 0.00 0.00 60 263.2
20260510102715 60 28 5.0 11.0 0.00 0.00 0.00 64 252.3
20260510102214 60 29 5.0 11.0 0.00 0.00 0.00 65 269.5
20260510101714 60 41 4.0 11.0 0.00 0.00 0.00 67 293.9
20260510101213 60 59 2.0 11.0 0.00 0.00 0.00 68 297.2
20260510100157 60 29 2.0 11.0 0.00 0.00 0.00 68 239.4
20260510095656 61 28 0.0 11.0 0.00 0.00 0.00 67 239.5
20260510095156 61 28 0.0 11.0 0.00 0.00 0.00 67 240.2
20260510094655 61 28 0.0 11.0 0.00 0.00 0.00 66 239.9
20260510094155 61 28 0.0 11.0 0.00 0.00 0.00 66 239.1
20260510093655 61 28 1.0 11.0 0.00 0.00 0.00 66 238.1
20260510093154 61 28 2.0 11.0 0.00 0.00 0.00 66 236.2
20260510092653 62 28 1.0 11.0 0.00 0.00 0.00 66 234.7
20260510092152 62 27 0.0 11.0 0.00 0.00 0.00 65 230.8
20260510091651 62 26 1.0 11.0 0.00 0.00 0.00 65 222.6
20260510090635 62 16 4.0 11.0 0.00 0.00 0.00 65 216.2
20260510090134 62 18 4.0 11.0 0.00 0.00 0.00 64 226.2
20260510085633 63 20 4.0 11.0 0.00 0.00 0.00 64 239.8
20260510085133 63 26 5.0 11.0 0.00 0.00 0.00 64 251.1
20260510084633 63 44 3.0 11.0 0.00 0.00 0.00 63 264.8
20260510084132 63 35 3.0 11.0 0.00 0.00 0.00 63 251.7
20260510083632 63 34 4.0 11.0 0.00 0.00 0.00 63 243.6
20260510083132 63 21 4.0 11.0 0.00 0.00 0.00 64 236.2
20260510082632 63 32 2.0 11.0 0.00 0.00 0.00 64 240.7
20260510082131 63 31 3.0 11.0 0.00 0.00 0.00 64 232.4
20260510081631 63 18 6.0 11.0 0.00 0.00 0.00 64 226.4
20260510081131 63 22 5.0 11.0 0.00 0.00 0.00 65 232.6
20260510080631 63 23 4.0 11.0 0.00 0.00 0.00 66 246.3
20260510080131 63 33 3.0 11.0 0.00 0.00 0.00 67 248.0
20260510075631 63 36 4.0 11.0 0.00 0.00 0.00 67 248.7
20260510074616 63 23 3.0 11.0 0.00 0.00 0.00 69 223.4
20260510074115 63 23 2.0 11.0 0.00 0.00 0.00 70 222.2
20260510073614 63 22 1.0 11.0 0.00 0.00 0.00 71 221.4
20260510073113 63 21 0.0 11.0 0.00 0.00 0.00 72 220.1
20260510071026 63 19 0.0 11.0 0.00 0.00 0.00 73 234.8
20260510070526 63 17 2.0 11.0 0.00 0.00 0.00 73 248.0
20260510070026 63 17 2.0 11.0 0.00 0.00 0.00 74 278.0
20260510065010 63 27 4.0 11.0 0.00 0.00 0.00 75 453.5
20260510063439 62 311 0.0 11.0 0.00 0.00 0.00 78 1091.3
20260510062938 62 311 2.0 11.0 0.00 0.00 0.00 78 1088.0
20260510062438 62 310 2.0 11.0 0.00 0.00 0.00 78 1084.8
20260510061937 62 308 0.0 11.0 0.00 0.00 0.00 80 1082.9
20260510061436 63 308 0.0 11.0 0.00 0.00 0.00 80 1082.7
20260510055348 63 308 0.0 11.0 0.00 0.00 0.00 76 1084.8
20260510054848 63 308 0.0 11.0 0.00 0.00 0.00 76 1084.9
20260510054347 63 308 0.0 11.0 0.00 0.00 0.00 75 1085.2
20260510053331 64 308 0.0 11.0 0.00 0.00 0.00 76 1083.0
20260510052831 64 308 1.0 11.0 0.00 0.00 0.00 77 1083.4
20260510052331 64 309 0.0 11.0 0.00 0.00 0.00 75 1084.9
20260510051314 64 308 0.0 11.0 0.00 0.00 0.00 75 1082.0
20260510050813 64 308 0.0 11.0 0.00 0.00 0.00 76 1081.3
20260510050313 64 308 0.0 11.0 0.00 0.00 0.00 76 1081.4
20260510045812 64 308 0.0 11.0 0.00 0.00 0.01 75 1080.7
20260510045312 65 308 0.0 11.0 0.00 0.00 0.01 74 1081.8
20260510044812 65 308 0.0 11.0 0.00 0.00 0.01 73 1082.6
20260510044312 65 308 0.0 11.0 0.00 0.00 0.01 72 1081.8
20260510043812 65 308 0.0 11.0 0.00 0.00 0.01 72 1082.1
20260510043312 65 308 0.0 11.0 0.00 0.00 0.01 70 1082.4
20260510042255 66 308 0.0 11.0 0.00 0.00 0.01 69 1081.5
20260510041755 66 308 0.0 11.0 0.00 0.00 0.01 69 1081.8
20260510041255 66 308 0.0 11.0 0.00 0.00 0.01 67 1082.0
20260510040754 66 308 0.0 11.0 0.00 0.00 0.01 67 1082.1
20260510040253 66 308 0.0 11.0 0.00 0.00 0.01 68 1081.2
20260510035752 66 308 0.0 11.0 0.00 0.00 0.01 69 1080.1
20260510035251 67 308 0.0 11.0 0.00 0.00 0.01 69 1081.1
20260510034750 67 308 0.0 11.0 0.00 0.00 0.01 67 1082.7
20260510034249 67 308 0.0 11.0 0.00 0.00 0.01 66 1083.2
20260510033232 67 308 0.0 11.0 0.00 0.00 0.01 63 1084.9
20260510032731 68 308 0.0 11.0 0.00 0.00 0.01 64 1085.0
20260510032230 68 308 0.0 11.0 0.00 0.00 0.01 64 1085.4
20260510031730 68 308 0.0 11.0 0.00 0.00 0.01 64 1087.1
20260510031229 69 308 0.0 11.0 0.00 0.00 0.01 62 1091.2
20260510030213 70 317 1.0 11.0 0.00 0.00 0.01 61 1116.6
20260510025712 70 321 0.0 11.0 0.00 0.00 0.01 60 1120.0
20260510025212 70 321 0.0 11.0 0.00 0.00 0.01 60 1119.1
20260510024155 71 321 0.0 11.0 0.00 0.00 0.01 58 1120.0
20260510023654 71 321 0.0 11.0 0.00 0.00 0.01 57 1121.1
20260510022637 71 321 0.0 11.0 0.00 0.00 0.01 56 1120.8
20260510022136 71 321 0.0 11.0 0.00 0.00 0.01 57 1118.7
20260510021120 71 318 0.0 11.0 0.00 0.00 0.01 58 1114.3
20260510020103 71 318 1.0 11.0 0.00 0.00 0.01 60 1112.0
20260510015603 71 329 2.0 11.0 0.00 0.00 0.01 60 1109.5
20260510015101 72 323 2.0 11.0 0.00 0.00 0.01 60 1166.7
20260510014045 73 344 0.0 11.0 0.00 0.00 0.01 54 1184.8
20260510013544 74 344 0.0 11.0 0.00 0.00 0.01 52 1184.2
20260510013044 75 344 0.0 11.0 0.00 0.00 0.01 51 1184.0
20260510012543 76 344 0.0 11.0 0.00 0.00 0.01 51 1183.0
20260510012042 77 344 0.0 11.0 0.00 0.00 0.01 50 1181.4
20260510005958 80 344 0.0 11.0 0.00 0.00 0.01 42 1179.2
20260510005457 80 344 0.0 11.0 0.00 0.00 0.01 41 1178.9
20260510004956 81 344 0.0 11.0 0.00 0.00 0.01 41 1178.9
20260510003940 82 344 0.0 11.0 0.00 0.00 0.01 38 1180.6
20260510003440 83 344 0.0 11.0 0.00 0.00 0.01 40 1182.0
20260510002940 83 344 0.0 11.0 0.00 0.00 0.01 39 1184.7
20260510002439 83 344 0.0 11.0 0.00 0.00 0.01 38 1187.6
20260510001939 83 344 0.0 11.0 0.00 0.00 0.01 36 1188.4
20260510000922 83 344 0.0 11.0 0.00 0.00 0.01 35 1185.6
20260510000421 83 344 0.0 11.0 0.00 0.00 0.01 35 1183.3
20260509235919 83 344 0.0 11.0 0.00 0.00 0.01 36 1182.4
20260509234903 83 345 0.0 11.0 0.00 0.00 0.01 33 1178.5
20260509234402 84 346 0.0 11.0 0.00 0.00 0.01 32 1168.9
20260509233901 84 346 0.0 11.0 0.00 0.00 0.01 32 1150.9
20260509232328 85 312 3.0 11.0 0.00 0.00 0.01 30 1053.6
20260509231828 85 294 2.0 11.0 0.00 0.00 0.01 30 1022.4
20260509231328 85 282 3.0 11.0 0.00 0.00 0.01 31 1007.3
20260509230826 85 288 3.0 11.0 0.00 0.00 0.01 31 1027.3
20260509230325 85 303 4.0 11.0 0.00 0.00 0.01 31 1024.6
20260509225824 85 276 2.0 11.0 0.00 0.00 0.01 30 994.3
20260509225323 85 287 3.0 11.0 0.00 0.00 0.01 30 1014.5
20260509224822 85 298 1.0 11.0 0.00 0.00 0.01 29 1013.1
20260509223808 85 302 3.0 11.0 0.00 0.00 0.01 30 964.1
20260509223307 84 216 1.0 11.0 0.00 0.00 0.01 30 850.1
20260509222806 84 240 3.0 11.0 0.00 0.00 0.01 29 877.8
20260509222307 84 240 2.0 11.0 0.00 0.00 0.01 30 877.4
20260509221806 84 233 3.0 11.0 0.00 0.00 0.01 30 893.4
20260509221307 85 245 3.0 11.0 0.00 0.00 0.01 30 913.5
20260509220806 84 267 5.0 11.0 0.00 0.00 0.01 30 928.2
20260509220305 84 250 6.0 11.0 0.00 0.00 0.01 31 923.6
20260509215805 84 252 3.0 11.0 0.00 0.00 0.01 33 923.3
20260509215306 84 267 4.0 11.0 0.00 0.00 0.01 32 924.3
20260509214804 84 233 4.0 11.0 0.00 0.00 0.01 32 903.5
20260509213748 85 285 3.0 11.0 0.00 0.00 0.01 32 951.2
20260509213247 85 249 4.0 11.0 0.00 0.00 0.01 32 906.9
20260509212747 85 229 5.0 11.0 0.00 0.00 0.01 30 923.7
20260509212247 85 280 2.0 13.0 0.00 0.00 0.01 30 962.1
20260509211747 85 252 4.0 13.0 0.00 0.00 0.01 29 946.3
20260509211247 85 292 5.0 11.0 0.00 0.00 0.01 31 984.5
20260509210745 85 279 2.0 11.0 0.00 0.00 0.01 32 979.1
20260509205730 85 272 4.0 11.0 0.00 0.00 0.01 32 948.1
20260509205228 84 267 5.0 11.0 0.00 0.00 0.01 30 941.9
20260509204727 84 287 3.0 11.0 0.00 0.00 0.01 30 958.4
20260509204226 84 239 4.0 11.0 0.00 0.00 0.01 30 948.1
20260509203725 84 262 5.0 11.0 0.00 0.00 0.01 31 1004.5
20260509203225 84 313 2.0 11.0 0.00 0.00 0.01 32 1022.5
20260509202725 84 290 4.0 13.0 0.00 0.00 0.01 29 969.7
20260509202224 84 294 4.0 13.0 0.00 0.00 0.01 29 933.0
20260509201724 84 252 5.0 15.0 0.00 0.00 0.01 30 892.6
20260509201223 85 238 7.0 15.0 0.00 0.00 0.01 32 887.1
20260509200721 84 256 4.0 13.0 0.00 0.00 0.01 32 935.8
20260509200221 84 269 3.0 13.0 0.00 0.00 0.01 32 950.4
20260509195721 84 263 5.0 12.0 0.00 0.00 0.01 30 958.7
20260509194704 84 245 5.0 11.0 0.00 0.00 0.01 32 903.4
20260509194204 84 245 3.0 11.0 0.00 0.00 0.01 36 918.1
20260509193703 84 261 6.0 11.0 0.00 0.00 0.01 35 936.5
20260509193204 84 248 6.0 11.0 0.00 0.00 0.01 34 940.3
20260509192703 84 261 5.0 13.0 0.00 0.00 0.01 32 938.1